Location: Im Fang
(46.6019°N, 7.2397°E)
Time: 09:39:33
(UTC+00:00)

USA 234 - Pass Details

Date: 08 December 2019
Orbit: 1099 x 1108 km, 123.0° (Epoch: 20 January)

Event Time Altitude Azimuth Distance (km) Brightness Sun altitude
Rises 04:26:04 0° 53° (NE) 3,924 6.8 -25.8°
Reaches altitude 10° 04:28:34 10° 51° (NE) 2,965 6.1 -25.4°
Maximum altitude 04:35:03 67° 330° (NNW) 1,186 3.2 -24.3°
Enters shadow 04:37:00 46° 268° (W) 1,444 3.4 -23.9°
